Temperature
27 27 26 26 25 25 24 25 26 26 26 26 26 26 26 25 24 24 23 23 23 22 21 19 18 17 17 16 16 15 15 14 14 14 14 13 13 13 13 13 13 13 13 13
27 26 27 27 26 25 26 26 27 27 26 26 26 26 27 26 25 24 24 23 23 21 21 20 18 17 17 16 15 15 14 14 14 14 13 13 13 13 13 13 13 13 13 13
26 27 28 27 26 27 27 27 27 26 26 26 26 26 27 26 25 24 24 23 22 21 20 19 18 17 16 16 15 15 14 14 14 14 14 13 13 13 13 13 13 13 13 13
27 27 27 27 27 28 26 27 27 26 26 26 27 25 26 25 25 24 24 23 22 21 20 19 18 17 16 16 15 14 14 14 13 13 13 13 13 13 13 13 13 13 13 13
26 26 27 27 27 27 26 27 27 27 26 26 27 26 26 25 25 24 24 23 22 21 20 19 18 17 16 15 15 14 14 13 13 13 13 13 13 13 13 13 13 13 13 13
26 27 28 27 27 27 27 27 27 27 26 25 27 26 25 25 25 24 24 23 21 20 19 19 18 17 16 15 15 14 14 13 13 13 13 13 13 13 13 13 13 13 13 13
26 27 27 28 27 27 27 26 25 25 24 26 27 26 25 24 25 24 24 23 21 20 19 18 18 17 16 15 15 14 14 13 13 13 13 13 13 13 13 13 12 13 13 13
26 26 27 27 27 27 27 27 25 24 25 26 26 26 24 25 24 23 23 22 21 20 19 18 18 17 16 15 15 14 14 13 13 13 13 13 13 12 12 12 12 12 13 12
26 26 27 28 28 27 27 27 27 25 26 26 27 26 24 24 24 23 23 22 21 20 19 19 18 17 16 16 15 14 14 13 13 13 13 13 13 12 12 12 12 12 12 12
26 25 26 26 27 26 27 26 26 25 24 25 26 26 24 23 24 24 23 23 22 21 20 19 18 17 16 16 15 15 14 14 14 13 13 13 13 12 12 12 12 12 12 12
27 25 25 25 25 26 26 26 26 25 25 24 24 24 25 24 24 24 24 23 22 21 20 19 18 17 17 16 15 15 15 14 14 13 13 13 13 12 12 12 12 12 12 12
27 27 26 26 27 27 27 26 26 25 25 25 24 23 25 25 24 24 23 22 21 21 20 19 18 17 17 16 16 15 15 14 14 13 13 13 13 13 12 12 12 12 12 12
27 26 25 25 25 25 25 26 26 25 24 24 24 24 25 25 25 24 23 22 21 20 20 19 18 17 17 16 16 15 15 14 14 14 13 13 13 13 13 12 12 12 12 12
25 26 26 25 25 26 25 25 25 25 24 24 25 25 25 25 24 24 23 22 21 21 20 19 18 18 17 17 16 16 15 15 14 14 13 13 13 13 13 12 12 12 12 12
26 25 27 27 27 26 26 26 25 24 24 24 25 25 25 25 25 24 23 22 22 21 20 20 19 18 18 17 16 16 15 15 14 14 14 13 13 13 13 12 12 12 12 12
26 26 26 26 27 26 26 26 26 25 25 25 25 25 26 25 25 24 23 23 22 21 20 20 19 19 18 17 17 16 15 15 15 14 14 13 13 13 13 12 12 12 12 12
26 26 25 25 26 26 25 26 25 25 25 25 24 25 26 25 25 24 23 23 22 21 20 20 19 19 18 18 17 16 16 15 15 14 14 14 13 13 13 13 12 12 12 12
26 26 25 25 25 24 26 27 27 26 26 26 26 26 26 25 24 24 23 22 22 21 20 20 19 19 18 18 17 17 16 16 15 15 14 14 13 13 13 13 13 13 12 12
26 25 25 25 25 26 26 26 26 26 25 26 26 26 26 25 24 23 23 22 21 21 20 19 19 18 18 18 17 17 17 16 15 15 14 14 13 13 13 13 13 13 12 12
25 25 24 24 24 25 26 27 27 26 25 26 26 26 25 25 23 23 22 21 21 20 19 19 18 18 18 17 17 17 17 16 16 15 14 14 14 13 13 13 13 13 12 12
23 23 23 23 24 25 26 26 25 24 24 26 26 25 25 24 23 22 22 21 20 20 19 18 18 18 17 17 17 17 17 16 16 15 15 14 14 14 14 13 13 13 13 13
25 24 24 24 23 24 25 25 25 25 25 25 25 24 24 23 22 22 21 20 20 19 19 18 18 17 17 17 17 16 16 16 16 15 15 14 14 14 14 13 13 13 13 13
26 26 26 25 24 24 25 25 24 24 24 24 23 23 23 22 22 21 21 20 19 19 18 18 17 17 17 17 16 16 16 16 15 15 15 15 14 14 14 14 14 13 13 13
27 27 26 25 25 24 24 23 23 23 23 22 22 22 22 22 21 21 21 20 19 19 18 18 17 17 17 17 16 16 16 16 15 15 15 15 15 14 14 14 14 14 13 13
26 26 26 25 25 24 23 23 22 22 22 21 21 21 21 21 20 20 20 19 19 18 18 17 17 17 17 16 16 16 16 16 15 15 15 15 15 15 15 15 14 14 14 14
26 26 25 24 25 24 23 22 21 21 21 21 20 20 20 20 19 19 19 18 18 18 17 17 17 16 16 16 16 16 16 16 15 15 15 15 15 15 15 15 15 14 14 14
Wind_Speed
14 12 11 9 6 5 6 10 7 2 4 3 8 7 5 10 8 6 6 5 2 3 4 6 5 3 4 5 6 6 6 6 5 4 4 4 5 5 4 4 4 5 5 5
13 15 12 5 3 6 11 11 6 3 3 4 9 8 4 8 7 5 3 2 2 4 3 5 5 4 5 5 5 6 6 6 6 4 4 3 4 4 4 4 4 5 5 5
16 9 8 7 9 11 9 5 6 6 4 8 9 9 7 8 6 5 3 1 1 2 3 4 4 4 4 4 5 6 5 6 6 6 4 5 4 4 4 4 4 4 5 4
9 4 5 8 8 6 5 5 5 8 8 7 4 4 5 11 8 7 5 3 3 3 2 3 3 4 4 4 5 6 6 6 7 7 5 6 5 5 5 4 4 4 4 4
4 7 7 6 2 2 2 2 6 9 9 10 8 6 5 9 6 6 5 4 4 4 2 3 3 4 3 4 5 5 6 6 6 7 6 5 4 4 4 5 5 5 4 4
3 4 3 1 3 2 1 7 10 9 8 8 4 3 4 4 7 6 6 5 5 4 3 3 3 4 3 4 4 4 4 5 5 6 7 6 6 6 7 6 5 5 4 4
7 8 4 3 4 4 5 8 5 5 6 3 6 1 5 10 8 6 5 5 5 4 3 2 2 3 2 2 3 4 4 4 5 6 7 7 7 6 6 6 6 5 4 3
10 11 9 6 4 3 4 6 6 5 4 1 4 3 8 10 8 5 4 5 3 3 4 3 2 2 1 2 2 3 4 4 5 5 6 6 7 5 5 6 6 5 4 3
3 4 8 5 1 3 5 4 3 5 9 7 4 8 8 7 7 5 4 4 4 3 4 3 3 2 1 1 2 2 3 4 5 5 5 4 5 5 6 6 6 5 5 4
3 3 6 4 3 3 5 7 4 4 5 5 1 4 6 6 5 3 2 3 3 3 3 4 3 2 2 1 1 1 1 3 3 4 5 5 4 4 5 6 6 6 6 5
4 4 8 7 7 7 7 6 4 4 5 4 4 4 6 6 5 2 1 3 3 3 3 3 3 2 2 1 0 1 0 1 3 4 5 5 5 5 5 5 6 6 5 5
3 4 6 9 5 1 4 5 5 4 3 2 3 3 5 5 4 1 1 3 3 3 3 3 4 3 2 0 1 0 1 1 2 2 4 4 4 5 5 6 7 6 5 5
3 4 4 5 4 4 5 5 5 5 4 4 4 3 5 4 3 3 3 3 4 4 4 4 4 3 2 1 1 0 1 2 2 2 3 4 5 5 6 6 7 7 7 6
3 7 9 6 3 3 5 6 6 6 5 5 3 1 3 2 3 3 4 4 4 4 4 4 4 4 4 2 1 1 1 1 1 1 2 3 4 4 5 6 6 7 7 7
4 9 11 7 3 4 6 6 8 9 8 7 6 5 4 4 3 3 3 4 4 4 4 4 4 4 4 3 2 2 1 0 1 0 2 3 4 4 5 6 6 6 7 8
5 9 11 9 7 6 8 9 9 10 9 9 8 6 2 4 2 1 2 4 3 3 3 3 3 3 4 4 4 4 2 1 1 0 1 1 2 3 4 5 5 5 6 6
7 9 9 10 6 6 9 12 13 10 8 7 7 3 2 1 0 0 1 2 3 3 3 3 3 3 2 3 3 4 3 2 2 1 1 1 2 3 4 5 5 5 5 5
7 7 5 8 6 8 1 4 4 8 9 7 5 2 0 1 1 2 2 1 2 3 3 3 2 2 1 2 3 2 3 2 1 1 1 1 1 2 3 4 5 5 4 4
6 6 5 7 8 7 5 6 5 5 6 6 5 2 1 1 2 3 4 4 3 3 4 3 2 2 2 1 1 1 2 3 2 1 0 0 1 0 2 3 4 4 4 4
5 7 6 6 6 5 5 9 5 2 4 5 4 2 2 1 1 3 6 6 5 5 4 4 2 2 2 2 1 2 2 2 2 2 1 1 1 1 2 2 3 3 4 4
7 6 8 9 7 2 8 9 5 3 2 5 5 3 2 1 4 6 6 6 6 5 4 4 2 2 2 2 1 3 1 0 1 1 1 1 2 3 3 2 3 3 3 4
9 6 8 8 8 4 9 8 4 3 5 5 4 4 3 4 5 5 5 5 6 5 4 3 2 2 2 2 2 3 1 1 1 1 2 3 4 4 3 3 3 4 4 5
7 6 3 3 2 6 3 4 4 3 3 4 3 4 3 3 3 4 4 4 5 4 4 3 2 2 2 2 2 3 2 1 2 3 4 5 5 5 4 4 4 4 4 4
6 5 4 3 4 6 5 4 4 2 2 3 3 3 2 2 3 3 3 4 4 4 3 3 3 2 2 3 3 3 2 2 3 5 5 5 5 5 4 4 4 4 3 3
3 2 5 7 4 4 6 6 5 4 4 3 3 3 3 3 3 3 3 4 4 3 3 2 1 2 2 2 3 3 2 3 4 6 6 6 5 5 4 4 5 5 4 4
9 6 7 6 6 6 7 10 8 7 6 5 5 5 4 4 3 3 4 4 4 4 3 2 1 1 2 1 0 0 1 3 5 5 5 4 3 3 4 4 5 9 10 10
Wind_Direction
203 216 226 225 229 269 260 268 274 125 119 285 280 271 203 171 181 208 228 238 234 94 87 92 76 45 16 19 18 4 5 2 3 359 340 335 330 326 320 314 325 326 318 316
205 220 225 201 185 244 256 270 304 61 87 308 288 282 236 162 176 191 236 285 9 67 38 79 74 46 29 17 15 5 3 358 2 348 331 318 320 311 309 314 321 330 327 321
218 215 210 215 226 239 259 303 347 339 315 262 264 266 203 148 151 156 185 172 41 68 21 43 51 43 29 23 18 4 359 357 360 348 349 339 330 324 332 328 329 324 316 316
221 218 223 220 234 259 310 34 341 306 291 283 256 296 161 144 161 174 172 150 120 91 60 64 59 45 22 31 26 5 4 7 3 352 357 341 338 339 328 330 325 323 324 329
196 197 222 235 241 316 19 327 285 281 280 280 254 257 138 145 159 142 128 115 103 102 85 65 76 64 30 34 29 7 2 9 0 344 331 323 349 337 328 333 331 333 335 334
160 204 228 163 98 52 297 266 255 248 257 260 240 252 116 115 90 93 106 115 119 108 94 72 74 83 49 36 24 4 7 4 351 338 336 349 355 343 338 340 343 337 331 332
185 192 158 153 178 194 244 273 275 233 220 213 108 190 82 90 81 76 82 93 95 106 107 90 65 80 58 35 18 355 4 2 356 346 346 350 355 351 346 347 336 334 336 338
204 186 172 195 237 276 253 278 301 309 312 22 159 162 101 99 92 93 104 107 118 141 129 127 111 99 78 38 19 358 5 356 347 338 347 357 358 355 346 338 334 339 333 334
288 151 147 157 181 302 286 271 330 312 291 282 185 126 117 124 137 146 150 143 166 158 146 149 136 125 106 63 30 14 1 345 342 343 350 359 352 350 341 339 340 336 334 340
275 166 164 152 191 217 287 324 304 270 307 302 230 132 127 140 128 132 160 155 146 145 151 142 135 127 116 115 109 54 338 328 336 346 349 354 355 357 344 339 343 345 339 341
238 204 174 178 210 219 200 226 241 277 282 296 343 64 76 89 82 60 55 106 122 135 144 138 134 125 116 107 158 170 260 351 6 2 350 356 357 353 346 343 348 344 341 343
265 274 210 191 167 169 272 272 273 272 302 282 284 102 98 103 113 127 88 108 126 132 142 147 139 135 128 168 291 315 22 44 27 356 344 359 352 354 353 349 347 339 339 339
336 280 260 169 154 176 225 238 267 292 297 278 280 122 157 148 143 127 119 126 143 157 169 169 150 152 165 207 215 326 43 34 21 4 358 0 358 2 351 343 342 343 346 347
337 276 275 289 345 146 210 205 220 247 258 271 277 74 160 119 100 113 129 147 159 168 174 164 155 174 173 208 171 117 73 45 21 1 345 355 352 359 350 343 344 348 348 349
253 270 278 285 288 276 268 241 210 228 253 277 315 340 348 45 64 91 135 154 166 173 178 178 179 183 177 184 152 134 135 268 300 343 3 12 4 6 356 344 342 353 353 351
232 272 283 279 262 248 255 246 232 227 241 261 282 292 19 73 75 92 155 156 165 179 185 189 182 173 193 175 159 164 172 207 248 221 47 27 5 355 344 334 339 351 351 346
225 250 277 280 256 234 251 232 221 223 225 236 257 281 42 45 101 116 120 137 159 171 172 173 192 186 195 153 146 156 167 193 218 170 118 58 14 352 342 343 346 342 344 350
262 259 265 271 249 249 135 73 183 211 220 222 233 258 5 351 80 119 110 114 140 147 149 160 185 174 168 152 142 153 168 175 165 98 74 108 54 351 340 338 332 331 338 349
284 274 263 262 263 253 172 162 167 197 216 207 216 195 162 129 192 169 132 105 88 100 118 126 148 149 162 128 124 189 196 163 152 130 296 147 132 290 310 318 322 325 336 338
260 272 261 265 267 277 115 121 128 212 227 169 167 159 144 208 226 112 107 104 97 91 98 109 133 160 153 138 139 256 246 159 150 162 220 201 191 244 265 291 303 304 309 313
198 226 239 261 265 261 117 118 132 219 114 112 121 118 124 106 67 93 101 104 103 106 110 125 158 163 142 142 186 255 268 110 119 139 195 232 232 241 239 250 271 286 293 303
199 209 215 226 244 228 141 151 176 96 91 85 88 84 86 81 82 92 98 111 122 127 132 145 168 171 167 174 222 259 249 139 125 171 237 254 254 259 258 238 254 266 276 283
224 242 246 213 129 100 124 119 91 65 94 91 82 76 90 108 108 109 118 123 129 136 144 156 179 194 190 186 218 266 246 192 214 227 237 243 245 242 234 235 249 257 262 267
232 218 254 263 177 161 158 138 128 117 99 89 88 94 107 119 111 110 117 115 114 123 132 151 180 210 213 194 194 244 260 241 239 243 246 245 242 245 235 221 231 243 256 267
282 212 234 250 199 163 174 174 166 153 150 138 122 111 101 102 99 96 96 91 95 101 110 125 176 226 248 219 195 212 231 251 261 260 255 250 238 235 242 235 226 231 233 224
265 247 234 239 217 212 190 173 171 168 165 157 148 132 117 109 104 97 89 81 79 85 89 102 119 284 299 312 355 334 244 252 270 277 279 278 270 249 235 241 251 237 232 233
Height
1503 1506 1508 1507 1508 1511 1514 1513 1511 1508 1507 1511 1511 1509 1508 1512 1516 1520 1522 1523 1524 1526 1528 1528 1528 1529 1528 1527 1525 1523 1521 1519 1516 1514 1511 1509 1507 1505 1504 1502 1501 1499 1498 1497
1502 1504 1500 1500 1504 1507 1509 1510 1506 1505 1506 1510 1509 1506 1503 1507 1513 1517 1519 1521 1523 1525 1527 1528 1528 1528 1527 1526 1524 1523 1520 1518 1516 1513 1511 1509 1507 1504 1503 1501 1499 1498 1496 1495
1500 1499 1496 1499 1503 1505 1503 1505 1507 1509 1506 1505 1508 1508 1502 1504 1511 1515 1518 1520 1523 1524 1526 1527 1527 1527 1526 1525 1523 1522 1520 1518 1515 1513 1510 1508 1506 1503 1501 1499 1497 1496 1495 1494
1496 1497 1496 1499 1500 1500 1507 1504 1506 1508 1512 1511 1506 1519 1505 1504 1509 1512 1516 1519 1521 1523 1525 1526 1526 1526 1525 1524 1523 1521 1519 1517 1514 1512 1510 1507 1505 1503 1501 1499 1496 1495 1494 1492
1498 1497 1496 1499 1499 1500 1505 1504 1504 1506 1509 1511 1505 1512 1507 1503 1508 1510 1514 1517 1520 1522 1524 1525 1525 1525 1525 1523 1522 1520 1518 1516 1514 1511 1509 1507 1505 1502 1500 1498 1496 1494 1493 1491
1497 1495 1494 1497 1498 1500 1502 1503 1502 1503 1507 1518 1503 1510 1511 1506 1507 1510 1513 1516 1519 1521 1523 1524 1524 1524 1523 1522 1521 1520 1518 1515 1513 1511 1509 1507 1504 1502 1499 1497 1495 1493 1492 1490
1500 1496 1496 1497 1500 1502 1502 1509 1517 1519 1522 1513 1499 1508 1511 1507 1506 1510 1513 1516 1518 1520 1522 1523 1523 1523 1522 1521 1520 1519 1517 1515 1513 1511 1509 1507 1504 1502 1499 1497 1495 1493 1491 1489
1500 1503 1496 1497 1499 1502 1501 1506 1521 1530 1520 1510 1503 1509 1510 1505 1509 1512 1514 1516 1518 1519 1520 1521 1522 1522 1521 1521 1519 1518 1516 1514 1512 1510 1508 1506 1504 1501 1499 1497 1495 1492 1490 1489
1499 1501 1493 1495 1497 1500 1503 1503 1501 1514 1512 1513 1503 1503 1508 1505 1508 1511 1513 1515 1517 1518 1519 1520 1521 1521 1520 1520 1519 1517 1516 1514 1512 1510 1508 1506 1503 1501 1498 1496 1494 1492 1490 1488
1497 1505 1498 1499 1500 1502 1502 1502 1506 1514 1522 1523 1506 1503 1510 1509 1507 1509 1510 1513 1515 1516 1518 1519 1519 1519 1519 1519 1518 1516 1515 1514 1512 1510 1508 1506 1503 1501 1498 1496 1494 1491 1489 1487
1491 1501 1503 1502 1503 1500 1504 1506 1507 1510 1511 1525 1525 1520 1502 1504 1506 1507 1509 1511 1513 1515 1516 1517 1518 1518 1518 1518 1517 1516 1515 1513 1512 1510 1508 1506 1503 1501 1499 1496 1494 1492 1489 1487
1490 1494 1500 1498 1493 1495 1497 1500 1503 1516 1513 1510 1520 1521 1501 1503 1505 1506 1508 1510 1512 1514 1515 1516 1517 1517 1517 1517 1516 1516 1514 1513 1511 1510 1508 1506 1503 1501 1499 1497 1494 1492 1490 1487
1491 1497 1505 1506 1506 1501 1501 1500 1502 1505 1511 1514 1519 1518 1501 1501 1502 1504 1507 1509 1511 1512 1514 1515 1515 1516 1516 1516 1515 1515 1514 1513 1511 1510 1508 1506 1504 1501 1499 1497 1495 1492 1490 1487
1495 1496 1502 1511 1504 1498 1501 1501 1502 1507 1515 1513 1508 1506 1501 1499 1501 1503 1505 1507 1509 1511 1512 1513 1514 1514 1514 1515 1514 1514 1513 1512 1511 1509 1508 1506 1504 1502 1499 1497 1495 1493 1490 1488
1495 1498 1492 1489 1489 1492 1495 1497 1500 1505 1506 1510 1505 1502 1499 1497 1500 1502 1504 1506 1507 1509 1510 1511 1512 1513 1513 1513 1513 1513 1512 1512 1511 1509 1508 1506 1504 1502 1500 1498 1496 1493 1490 1488
1494 1496 1492 1492 1488 1490 1495 1494 1495 1499 1500 1502 1502 1501 1495 1497 1499 1501 1502 1504 1506 1507 1509 1510 1511 1511 1512 1512 1512 1511 1511 1511 1510 1509 1508 1506 1504 1502 1500 1498 1496 1493 1491 1489
1490 1494 1497 1497 1488 1492 1499 1488 1490 1493 1493 1497 1501 1498 1494 1496 1498 1499 1501 1502 1504 1505 1507 1508 1509 1510 1510 1511 1511 1510 1510 1510 1509 1509 1507 1506 1504 1502 1500 1498 1496 1494 1492 1489
1487 1490 1494 1496 1495 1508 1490 1477 1479 1485 1488 1489 1491 1492 1493 1495 1497 1498 1500 1501 1502 1503 1505 1506 1507 1508 1509 1510 1510 1510 1509 1509 1509 1508 1507 1505 1503 1502 1500 1498 1496 1494 1492 1490
1487 1490 1495 1495 1498 1490 1484 1478 1480 1486 1488 1485 1487 1490 1492 1494 1496 1497 1499 1500 1501 1502 1503 1504 1506 1507 1508 1508 1509 1509 1509 1508 1508 1507 1506 1505 1503 1501 1499 1498 1496 1494 1493 1491
1490 1489 1495 1494 1501 1499 1482 1476 1479 1485 1490 1483 1486 1488 1491 1493 1496 1497 1498 1499 1500 1501 1502 1503 1504 1505 1506 1507 1507 1507 1508 1507 1506 1505 1505 1503 1502 1501 1499 1497 1496 1494 1493 1491
1494 1494 1497 1499 1497 1485 1478 1478 1482 1496 1491 1483 1485 1488 1490 1492 1495 1497 1497 1498 1499 1500 1501 1502 1503 1504 1505 1505 1506 1506 1506 1506 1505 1504 1503 1502 1501 1500 1498 1497 1495 1494 1492 1491
1485 1489 1490 1491 1497 1490 1477 1479 1483 1485 1484 1485 1486 1488 1490 1492 1494 1496 1497 1498 1498 1499 1500 1501 1502 1503 1503 1504 1504 1504 1504 1504 1503 1502 1501 1500 1499 1498 1497 1496 1494 1493 1492 1490
1473 1473 1474 1477 1483 1478 1477 1478 1481 1482 1484 1486 1487 1489 1490 1492 1494 1495 1496 1497 1497 1498 1499 1499 1500 1501 1502 1502 1502 1502 1502 1502 1501 1500 1499 1499 1498 1497 1496 1495 1493 1492 1491 1490
1465 1466 1470 1472 1473 1475 1477 1479 1481 1482 1484 1485 1487 1488 1489 1491 1492 1494 1495 1496 1496 1497 1497 1498 1499 1499 1500 1500 1500 1500 1500 1499 1499 1498 1497 1497 1496 1495 1494 1493 1492 1490 1489 1488
1464 1465 1468 1471 1471 1474 1476 1477 1479 1481 1483 1484 1486 1487 1488 1490 1491 1492 1493 1494 1495 1495 1496 1496 1497 1497 1498 1498 1498 1497 1497 1497 1496 1496 1495 1495 1494 1493 1491 1490 1489 1488 1487 1486
1464 1465 1468 1469 1467 1469 1471 1473 1476 1479 1481 1482 1484 1486 1487 1488 1489 1491 1492 1492 1493 1494 1494 1495 1495 1496 1496 1496 1496 1495 1494 1494 1493 1493 1493 1492 1491 1490 1489 1487 1486 1485 1484 1483